Location: Vihti�l�
(61.3833°N, 23.0667°E)
Time: 03:37:11
(UTC+00:00)

Cosmos 1898 Rocket - Pass Details

Date: 29 November 2020
Orbit: 754 x 783 km, 74.0° (Epoch: 19 January)

Event Time Altitude Azimuth Distance (km) Brightness Sun altitude
Rises 04:49:56 0° 214° (SW) 3,261 6.6 -14.9°
Reaches altitude 10° 04:52:18 10° 215° (SW) 2,339 5.8 -14.6°
Maximum altitude 04:57:39 85° 305° (NW) 796 3.5 -14.0°
Drops below altitude 10° 05:03:02 10° 34° (NE) 2,355 6.2 -13.4°
Sets 05:05:26 0° 35° (NE) 3,285 7.0 -13.1°
